STARLINK-32279

Last updated on Sun Oct 06 2024 00:02:04 GMT+0000 (Coordinated Universal Time)

1 61003U 24158P 24279.58335648 .00116357 00000+0 28816-2 0 9995 2 61003 53.1586 327.3592 0001212 65.6173 31.6098 15.39547100 6003
UTC large
Height (km)
Speed (km/s)
/
Latitude / Longitude
Inclination (degrees)
Orbital Period (minutes)
Azimuth
Elevation
Range (km)
Doppler Factor

Next 0 passes for location: London (51.5072 / 0.1276)

Sorry there are no passes over London.